Time,TemperatureF,DewpointF,PressureIn,WindDirection,WindDirectionDegrees,WindSpeedMPH,WindSpeedGustMPH,Humidity,HourlyPrecipIn,Conditions,Clouds,dailyrainin,SoftwareType,DateUTC
2013-08-05 00:02:00,85.0,78.0,30.05,North,1,0.0,0.0,81,0.00,,,0.00,,2013-08-05 04:02:00,
2013-08-05 00:12:00,85.0,79.0,30.05,NNW,346,0.0,0.0,82,0.00,,,0.00,,2013-08-05 04:12:00,
2013-08-05 00:22:00,85.0,79.0,30.05,NNW,336,0.0,0.0,83,0.00,,,0.00,,2013-08-05 04:22:00,
2013-08-05 00:32:00,85.0,79.0,30.05,NNW,336,0.0,0.0,83,0.00,,,0.00,,2013-08-05 04:32:00,
2013-08-05 00:43:00,85.0,79.0,30.05,NNW,338,0.0,0.0,83,0.00,,,0.00,,2013-08-05 04:43:00,
2013-08-05 00:52:00,85.0,79.0,30.05,NNW,338,0.0,0.0,83,0.00,,,0.00,,2013-08-05 04:52:00,
2013-08-05 01:02:00,85.0,79.0,30.05,NNW,330,0.0,0.0,83,0.00,,,0.00,,2013-08-05 05:02:00,
2013-08-05 01:12:00,84.0,78.0,30.05,NNW,330,0.0,0.0,82,0.00,,,0.00,,2013-08-05 05:12:00,
2013-08-05 01:22:00,84.0,78.0,30.05,NNW,346,0.0,0.0,82,0.00,,,0.00,,2013-08-05 05:22:00,
2013-08-05 01:32:00,84.0,78.0,30.05,NNW,346,0.0,0.0,82,0.00,,,0.00,,2013-08-05 05:32:00,
2013-08-05 01:43:00,84.0,78.0,30.04,NNW,346,0.0,0.0,82,0.00,,,0.00,,2013-08-05 05:43:00,
2013-08-05 01:53:00,84.0,78.0,30.04,NW,325,0.0,0.0,82,0.00,,,0.00,,2013-08-05 05:53:00,
2013-08-05 02:02:00,84.0,78.0,30.03,NNW,329,0.0,0.0,82,0.00,,,0.00,,2013-08-05 06:02:00,
2013-08-05 02:12:00,84.0,78.0,30.03,North,350,0.0,0.0,82,0.00,,,0.00,,2013-08-05 06:12:00,
2013-08-05 02:22:00,84.0,78.0,30.03,North,350,0.0,0.0,82,0.00,,,0.00,,2013-08-05 06:22:00,
2013-08-05 02:32:00,83.0,77.0,30.03,North,350,0.0,0.0,81,0.00,,,0.00,,2013-08-05 06:32:00,
2013-08-05 02:43:00,84.0,78.0,30.03,North,350,0.0,0.0,81,0.00,,,0.00,,2013-08-05 06:43:00,
2013-08-05 02:52:00,83.0,76.0,30.02,North,350,0.0,0.0,80,0.00,,,0.00,,2013-08-05 06:52:00,
2013-08-05 03:02:00,84.0,78.0,30.02,North,350,0.0,0.0,81,0.00,,,0.00,,2013-08-05 07:02:00,
2013-08-05 03:12:00,83.0,77.0,30.01,North,350,0.0,0.0,81,0.00,,,0.00,,2013-08-05 07:12:00,
2013-08-05 03:22:00,83.0,77.0,30.01,North,350,0.0,0.0,81,0.00,,,0.00,,2013-08-05 07:22:00,
2013-08-05 03:32:00,83.0,77.0,30.00,North,350,0.0,0.0,81,0.00,,,0.00,,2013-08-05 07:32:00,
2013-08-05 03:43:00,83.0,76.0,30.00,North,350,0.0,0.0,80,0.00,,,0.00,,2013-08-05 07:43:00,
2013-08-05 03:53:00,83.0,76.0,30.00,North,350,0.0,0.0,80,0.00,,,0.00,,2013-08-05 07:53:00,
2013-08-05 04:02:00,83.0,76.0,30.00,WNW,289,0.0,0.0,79,0.00,,,0.00,,2013-08-05 08:02:00,
2013-08-05 04:12:00,83.0,76.0,29.99,West,278,0.0,0.0,80,0.00,,,0.00,,2013-08-05 08:12:00,
2013-08-05 04:22:00,83.0,76.0,29.99,West,278,0.0,0.0,79,0.00,,,0.00,,2013-08-05 08:22:00,
2013-08-05 04:34:00,83.0,76.0,29.99,West,278,0.0,0.0,79,0.00,,,0.00,,2013-08-05 08:34:00,
2013-08-05 04:49:00,83.0,76.0,29.98,West,278,0.0,0.0,79,0.00,,,0.00,,2013-08-05 08:49:00,
2013-08-05 05:06:00,83.0,76.0,29.98,West,278,0.0,0.0,80,0.00,,,0.00,,2013-08-05 09:06:00,
2013-08-05 05:18:00,83.0,77.0,29.98,West,278,0.0,0.0,81,0.00,,,0.00,,2013-08-05 09:18:00,
2013-08-05 05:27:00,83.0,77.0,29.98,West,278,0.0,0.0,81,0.00,,,0.00,,2013-08-05 09:27:00,
2013-08-05 05:39:00,83.0,77.0,29.98,West,278,0.0,0.0,81,0.00,,,0.00,,2013-08-05 09:39:00,
2013-08-05 05:48:00,83.0,77.0,29.99,West,278,0.0,0.0,82,0.00,,,0.00,,2013-08-05 09:48:00,
2013-08-05 05:53:00,83.0,77.0,29.99,West,278,0.0,0.0,82,0.00,,,0.00,,2013-08-05 09:53:00,
2013-08-05 06:10:00,83.0,77.0,29.99,West,278,0.0,0.0,82,0.00,,,0.00,,2013-08-05 10:10:00,
2013-08-05 06:16:00,82.0,76.0,29.99,West,278,0.0,0.0,82,0.00,,,0.00,,2013-08-05 10:16:00,
2013-08-05 06:27:00,82.0,76.0,29.99,West,278,0.0,0.0,82,0.00,,,0.00,,2013-08-05 10:27:00,
2013-08-05 06:33:00,82.0,76.0,29.99,West,278,0.0,0.0,82,0.00,,,0.00,,2013-08-05 10:33:00,
2013-08-05 06:47:00,82.0,76.0,29.99,West,278,0.0,0.0,83,0.00,,,0.00,,2013-08-05 10:47:00,
2013-08-05 06:53:00,82.0,76.0,30.00,West,278,0.0,0.0,83,0.00,,,0.00,,2013-08-05 10:53:00,
2013-08-05 07:09:00,82.0,77.0,30.00,West,278,0.0,0.0,84,0.00,,,0.00,,2013-08-05 11:09:00,
2013-08-05 07:28:00,82.0,77.0,30.01,West,278,0.0,0.0,84,0.00,,,0.00,,2013-08-05 11:28:00,
2013-08-05 07:37:00,82.0,76.0,30.01,West,278,0.0,0.0,83,0.00,,,0.00,,2013-08-05 11:37:00,
2013-08-05 07:49:00,82.0,77.0,30.01,West,278,0.0,0.0,84,0.00,,,0.00,,2013-08-05 11:49:00,
2013-08-05 07:58:00,82.0,76.0,30.01,West,278,0.0,0.0,83,0.00,,,0.00,,2013-08-05 11:58:00,
2013-08-05 08:07:00,82.0,76.0,30.01,West,278,0.0,0.0,83,0.00,,,0.00,,2013-08-05 12:07:00,
2013-08-05 08:17:00,83.0,77.0,30.01,West,278,0.0,0.0,83,0.00,,,0.00,,2013-08-05 12:17:00,
2013-08-05 08:27:00,83.0,77.0,30.02,West,278,0.0,0.0,82,0.00,,,0.00,,2013-08-05 12:27:00,
2013-08-05 08:33:00,83.0,77.0,30.02,West,278,0.0,0.0,82,0.00,,,0.00,,2013-08-05 12:33:00,
2013-08-05 08:49:00,84.0,78.0,30.02,NW,323,0.0,0.0,82,0.00,,,0.00,,2013-08-05 12:49:00,
2013-08-05 08:56:00,84.0,78.0,30.02,NNW,348,0.0,0.0,82,0.00,,,0.00,,2013-08-05 12:56:00,
2013-08-05 09:02:00,85.0,79.0,30.03,NW,317,0.0,0.0,82,0.00,,,0.00,,2013-08-05 13:02:00,
2013-08-05 09:14:00,86.0,79.0,30.02,NW,304,0.0,0.0,81,0.00,,,0.00,,2013-08-05 13:14:00,
2013-08-05 09:27:00,86.0,79.0,30.03,NW,319,0.0,0.0,79,0.00,,,0.00,,2013-08-05 13:27:00,
2013-08-05 09:38:00,86.0,79.0,30.03,NNW,333,0.0,0.0,79,0.00,,,0.00,,2013-08-05 13:38:00,
2013-08-05 09:54:00,87.0,79.0,30.03,North,8,0.0,0.0,77,0.00,,,0.00,,2013-08-05 13:54:00,
2013-08-05 10:05:00,88.0,78.0,30.04,NW,319,0.0,0.0,73,0.00,,,0.00,,2013-08-05 14:05:00,
2013-08-05 10:17:00,89.0,80.0,30.04,NW,324,0.0,0.0,74,0.00,,,0.00,,2013-08-05 14:17:00,
2013-08-05 10:27:00,89.0,79.0,30.04,WNW,292,0.0,0.0,72,0.00,,,0.00,,2013-08-05 14:27:00,
2013-08-05 10:38:00,90.0,79.0,30.04,WNW,301,0.0,0.0,70,0.00,,,0.00,,2013-08-05 14:38:00,
2013-08-05 10:47:00,90.0,79.0,30.04,WNW,301,0.0,0.0,70,0.00,,,0.00,,2013-08-05 14:47:00,
2013-08-05 10:54:00,91.0,80.0,30.04,WNW,296,0.0,0.0,70,0.00,,,0.00,,2013-08-05 14:54:00,
2013-08-05 11:08:00,91.0,79.0,30.04,NW,309,0.0,0.0,68,0.00,,,0.00,,2013-08-05 15:08:00,
2013-08-05 11:15:00,92.0,80.0,30.04,NE,46,0.0,0.0,69,0.00,,,0.00,,2013-08-05 15:15:00,
2013-08-05 11:37:00,92.0,79.0,30.05,WNW,300,0.0,0.0,65,0.00,,,0.00,,2013-08-05 15:37:00,
2013-08-05 11:47:00,92.0,78.0,30.05,WNW,293,0.0,0.0,64,0.00,,,0.00,,2013-08-05 15:47:00,
2013-08-05 11:57:00,92.0,79.0,30.05,WNW,290,0.0,0.0,66,0.00,,,0.00,,2013-08-05 15:57:00,
2013-08-05 12:17:00,92.0,79.0,30.05,NW,317,0.0,0.0,65,0.00,,,0.00,,2013-08-05 16:17:00,
2013-08-05 12:26:00,92.0,78.0,30.04,WNW,300,0.0,0.0,64,0.00,,,0.00,,2013-08-05 16:26:00,
2013-08-05 12:45:00,93.0,79.0,30.04,NW,313,0.0,0.0,65,0.00,,,0.00,,2013-08-05 16:45:00,
2013-08-05 13:06:00,93.0,80.0,30.04,West,278,0.0,0.0,66,0.00,,,0.00,,2013-08-05 17:06:00,
2013-08-05 13:17:00,93.0,79.0,30.04,West,271,0.0,0.0,65,0.00,,,0.00,,2013-08-05 17:17:00,
2013-08-05 13:22:00,93.0,79.0,30.03,WNW,285,0.0,0.0,63,0.00,,,0.00,,2013-08-05 17:22:00,
2013-08-05 13:37:00,94.0,80.0,30.03,West,276,0.0,0.0,64,0.00,,,0.00,,2013-08-05 17:37:00,
2013-08-05 13:48:00,94.0,80.0,30.03,West,263,0.0,0.0,65,0.00,,,0.00,,2013-08-05 17:48:00,
2013-08-05 13:57:00,94.0,80.0,30.03,West,263,0.0,0.0,65,0.00,,,0.00,,2013-08-05 17:57:00,
2013-08-05 14:08:00,94.0,79.0,30.02,West,273,0.0,0.0,63,0.00,,,0.00,,2013-08-05 18:08:00,
2013-08-05 14:13:00,93.0,79.0,30.02,WNW,294,0.0,0.0,63,0.00,,,0.00,,2013-08-05 18:13:00,
2013-08-05 14:26:00,92.0,79.0,30.02,WNW,285,0.0,0.0,66,0.00,,,0.00,,2013-08-05 18:26:00,
2013-08-05 14:38:00,91.0,79.0,30.01,West,268,0.0,0.0,68,0.00,,,0.00,,2013-08-05 18:38:00,
2013-08-05 14:44:00,90.0,78.0,30.01,WNW,286,0.0,0.0,69,0.00,,,0.00,,2013-08-05 18:44:00,
2013-08-05 14:53:00,89.0,78.0,30.00,West,277,0.0,0.0,70,0.00,,,0.00,,2013-08-05 18:53:00,
2013-08-05 15:05:00,89.0,77.0,30.00,West,260,0.0,0.0,69,0.00,,,0.00,,2013-08-05 19:05:00,
2013-08-05 15:26:00,89.0,78.0,30.00,WNW,291,0.0,0.0,70,0.00,,,0.00,,2013-08-05 19:26:00,
2013-08-05 15:38:00,89.0,77.0,30.00,WNW,291,0.0,0.0,67,0.00,,,0.00,,2013-08-05 19:38:00,
2013-08-05 15:50:00,90.0,78.0,30.00,West,278,0.0,0.0,68,0.00,,,0.00,,2013-08-05 19:50:00,
2013-08-05 16:09:00,93.0,77.0,29.98,WNW,293,0.0,0.0,59,0.00,,,0.00,,2013-08-05 20:09:00,
2013-08-05 16:15:00,94.0,75.0,29.98,WNW,283,0.0,0.0,54,0.00,,,0.00,,2013-08-05 20:15:00,
2013-08-05 16:47:00,93.0,74.0,29.98,WNW,288,0.0,0.0,54,0.00,,,0.00,,2013-08-05 20:47:00,
2013-08-05 16:56:00,92.0,76.0,29.98,West,261,0.0,0.0,60,0.00,,,0.00,,2013-08-05 20:56:00,
2013-08-05 17:07:00,90.0,76.0,29.98,WNW,283,0.0,0.0,63,0.00,,,0.00,,2013-08-05 21:07:00,
2013-08-05 17:26:00,88.0,76.0,29.97,WNW,284,0.0,0.0,67,0.00,,,0.00,,2013-08-05 21:26:00,
2013-08-05 18:05:00,88.0,77.0,29.97,West,261,0.0,0.0,70,0.00,,,0.00,,2013-08-05 22:05:00,
2013-08-05 18:14:00,87.0,76.0,29.97,WNW,302,0.0,0.0,71,0.00,,,0.00,,2013-08-05 22:14:00,
2013-08-05 18:26:00,87.0,77.0,29.97,WNW,294,0.0,0.0,72,0.00,,,0.00,,2013-08-05 22:26:00,
2013-08-05 18:37:00,87.0,78.0,29.97,West,269,0.0,0.0,74,0.00,,,0.00,,2013-08-05 22:37:00,
2013-08-05 18:44:00,87.0,78.0,29.97,West,269,0.0,0.0,74,0.00,,,0.00,,2013-08-05 22:44:00,
2013-08-05 18:53:00,86.0,77.0,29.97,WNW,286,0.0,0.0,74,0.00,,,0.00,,2013-08-05 22:53:00,
2013-08-05 19:07:00,86.0,78.0,29.97,WNW,292,0.0,0.0,76,0.00,,,0.00,,2013-08-05 23:07:00,
2013-08-05 19:16:00,86.0,78.0,29.97,WNW,286,0.0,0.0,76,0.00,,,0.00,,2013-08-05 23:16:00,
2013-08-05 19:27:00,86.0,78.0,29.97,WNW,293,0.0,0.0,77,0.00,,,0.00,,2013-08-05 23:27:00,
2013-08-05 19:33:00,86.0,78.0,29.98,West,272,0.0,0.0,77,0.00,,,0.00,,2013-08-05 23:33:00,
2013-08-05 19:46:00,86.0,78.0,29.98,West,275,0.0,0.0,78,0.00,,,0.00,,2013-08-05 23:46:00,
2013-08-05 19:57:00,86.0,79.0,29.98,WNW,284,0.0,0.0,79,0.00,,,0.00,,2013-08-05 23:57:00,
2013-08-05 20:02:00,86.0,78.0,29.98,WNW,293,0.0,0.0,77,0.00,,,0.00,,2013-08-06 00:02:00,
2013-08-05 20:15:00,85.0,77.0,29.98,WNW,290,0.0,0.0,78,0.00,,,0.00,,2013-08-06 00:15:00,
2013-08-05 20:24:00,85.0,77.0,29.98,WNW,300,0.0,0.0,78,0.00,,,0.00,,2013-08-06 00:24:00,
2013-08-05 20:37:00,85.0,77.0,29.97,WNW,290,0.0,0.0,77,0.00,,,0.00,,2013-08-06 00:37:00,
2013-08-05 20:45:00,85.0,77.0,29.97,WNW,285,0.0,0.0,77,0.00,,,0.00,,2013-08-06 00:45:00,
2013-08-05 20:57:00,85.0,77.0,29.98,WNW,296,0.0,0.0,78,0.00,,,0.00,,2013-08-06 00:57:00,
2013-08-05 21:14:00,85.0,78.0,29.98,NW,311,0.0,0.0,79,0.00,,,0.00,,2013-08-06 01:14:00,
2013-08-05 21:27:00,85.0,78.0,29.98,NW,308,0.0,0.0,79,0.00,,,0.00,,2013-08-06 01:27:00,
2013-08-05 21:39:00,85.0,78.0,29.99,NW,318,0.0,0.0,79,0.00,,,0.00,,2013-08-06 01:39:00,
2013-08-05 21:49:00,85.0,78.0,29.98,NW,312,0.0,0.0,80,0.00,,,0.00,,2013-08-06 01:49:00,
2013-08-05 22:08:00,85.0,78.0,29.98,NW,315,0.0,0.0,80,0.00,,,0.00,,2013-08-06 02:08:00,
2013-08-05 22:15:00,85.0,78.0,29.98,WNW,302,0.0,0.0,80,0.00,,,0.00,,2013-08-06 02:15:00,
2013-08-05 22:26:00,85.0,78.0,29.98,NW,314,0.0,0.0,80,0.00,,,0.00,,2013-08-06 02:26:00,
2013-08-05 22:46:00,85.0,78.0,29.98,NW,304,0.0,0.0,80,0.00,,,0.00,,2013-08-06 02:46:00,
2013-08-05 22:52:00,85.0,78.0,29.98,WNW,286,0.0,0.0,80,0.00,,,0.00,,2013-08-06 02:52:00,
2013-08-05 23:35:00,85.0,78.0,29.98,WNW,300,0.0,0.0,81,0.00,,,0.00,,2013-08-06 03:35:00,
2013-08-05 23:45:00,85.0,79.0,29.98,WNW,300,0.0,0.0,82,0.00,,,0.00,,2013-08-06 03:45:00,
2013-08-05 23:52:00,85.0,78.0,29.98,WNW,302,0.0,0.0,81,0.00,,,0.00,,2013-08-06 03:52:00,